Wetterdaten: Freitag, 22.04.2016
Datum Zeit Temp. A. Mod.Schuppen Aussentemp2 Feuchte A. Luftdruck Regen Wind Richtung Richtung Sonnenschein Helligkeit Solar
22.04.2016 00:00 12,8 C 10,7 C 13,8 C 46 % 1019,8 hPa 0,0 l/m 22,5 km/h (4 Bft) N-NO22.5 30 0 min 0 lux 0 W/m
22.04.2016 00:04 12,8 C 10,9 C 13,7 C 46 % 1019,8 hPa 0,0 l/m 22,6 km/h (4 Bft) NO45 35 0 min 0 lux 0 W/m
22.04.2016 00:09 12,8 C 11,1 C 13,7 C 46 % 1019,8 hPa 0,0 l/m 23,1 km/h (4 Bft) NO67.5 40 0 min 0 lux 0 W/m
22.04.2016 00:14 12,8 C 11,2 C 13,7 C 46 % 1019,8 hPa 0,0 l/m 24,2 km/h (4 Bft) NO22.5 35 0 min 0 lux 0 W/m
22.04.2016 00:20 12,8 C 11,3 C 13,7 C 46 % 1019,8 hPa 0,0 l/m 26,0 km/h (4 Bft) NO45 40 0 min 0 lux 0 W/m
22.04.2016 00:25 12,7 C 11,3 C 13,7 C 47 % 1019,8 hPa 0,0 l/m 19,4 km/h (3 Bft) N-NO22.5 30 0 min 0 lux 0 W/m
22.04.2016 00:29 12,7 C 11,3 C 13,7 C 47 % 1019,8 hPa 0,0 l/m 15,5 km/h (3 Bft) N-NO22.5 25 0 min 0 lux 0 W/m
22.04.2016 00:34 12,6 C 11,2 C 13,7 C 47 % 1019,8 hPa 0,0 l/m 20,9 km/h (4 Bft) NO67.5 50 0 min 0 lux 0 W/m
22.04.2016 00:39 12,6 C 11,2 C 13,6 C 47 % 1019,8 hPa 0,0 l/m 20,0 km/h (4 Bft) NO45 35 0 min 0 lux 0 W/m
22.04.2016 00:45 12,5 C 11,2 C 13,6 C 48 % 1019,8 hPa 0,0 l/m 20,3 km/h (4 Bft) N-NO22.5 25 0 min 0 lux 0 W/m
22.04.2016 00:50 12,4 C 11,0 C 13,6 C 50 % 1019,8 hPa 0,0 l/m 20,9 km/h (4 Bft) N45 10 0 min 0 lux 0 W/m
22.04.2016 00:54 12,0 C 10,8 C 13,6 C 51 % 1019,8 hPa 0,0 l/m 16,1 km/h (3 Bft) N67.5 10 0 min 0 lux 0 W/m
22.04.2016 00:59 11,9 C 10,7 C 13,6 C 52 % 1019,8 hPa 0,0 l/m 18,1 km/h (3 Bft) N-NO22.5 25 0 min 0 lux 0 W/m
22.04.2016 01:05 11,8 C 10,6 C 13,6 C 52 % 1019,8 hPa 0,0 l/m 20,4 km/h (4 Bft) NO67.5 35 0 min 0 lux 0 W/m
22.04.2016 01:10 11,6 C 10,5 C 13,5 C 53 % 1019,8 hPa 0,0 l/m 21,9 km/h (4 Bft) N-NO45 20 0 min 0 lux 0 W/m
22.04.2016 01:14 11,6 C 10,4 C 13,6 C 54 % 1019,8 hPa 0,0 l/m 18,2 km/h (3 Bft) N-NO22.5 25 0 min 0 lux 0 W/m
22.04.2016 01:19 11,5 C 10,2 C 13,6 C 55 % 1019,8 hPa 0,0 l/m 14,0 km/h (3 Bft) N-NO45 15 0 min 0 lux 0 W/m
22.04.2016 01:24 11,3 C 10,2 C 13,6 C 55 % 1019,8 hPa 0,0 l/m 16,0 km/h (3 Bft) N-NO45 25 0 min 0 lux 0 W/m
22.04.2016 01:30 11,2 C 10,0 C 13,6 C 56 % 1019,8 hPa 0,0 l/m 20,2 km/h (4 Bft) N-NO22.5 25 0 min 0 lux 0 W/m
22.04.2016 01:35 11,2 C 10,0 C 13,5 C 57 % 1019,8 hPa 0,0 l/m 17,0 km/h (3 Bft) N-NO22.5 25 0 min 0 lux 0 W/m
22.04.2016 01:39 11,2 C 10,0 C 13,5 C 57 % 1019,8 hPa 0,0 l/m 22,6 km/h (4 Bft) N-NO45 30 0 min 0 lux 0 W/m
22.04.2016 01:44 11,0 C 9,8 C 13,4 C 58 % 1019,8 hPa 0,0 l/m 21,4 km/h (4 Bft) N-NO45 25 0 min 0 lux 0 W/m
22.04.2016 01:49 10,9 C 9,8 C 13,4 C 58 % 1019,8 hPa 0,0 l/m 21,0 km/h (4 Bft) NO45 35 0 min 0 lux 0 W/m
22.04.2016 01:54 10,9 C 9,8 C 13,4 C 59 % 1019,8 hPa 0,0 l/m 16,0 km/h (3 Bft) N-NO22.5 25 0 min 0 lux 0 W/m
22.04.2016 02:00 10,9 C 9,7 C 13,4 C 59 % 1019,8 hPa 0,0 l/m 23,7 km/h (4 Bft) N-NO22.5 15 0 min 0 lux 0 W/m
22.04.2016 02:04 10,9 C 9,7 C 13,4 C 59 % 1019,8 hPa 0,0 l/m 22,8 km/h (4 Bft) N-NO67.5 20 0 min 0 lux 0 W/m
22.04.2016 02:09 10,9 C 9,6 C 13,4 C 59 % 1019,8 hPa 0,0 l/m 22,6 km/h (4 Bft) NO45 35 0 min 0 lux 0 W/m
22.04.2016 02:15 10,9 C 9,6 C 13,4 C 59 % 1019,8 hPa 0,0 l/m 25,0 km/h (4 Bft) N-NO22.5 30 0 min 0 lux 0 W/m
22.04.2016 02:20 10,8 C 9,6 C 13,3 C 60 % 1019,8 hPa 0,0 l/m 28,2 km/h (5 Bft) NO22.5 45 0 min 0 lux 0 W/m
22.04.2016 02:24 10,7 C 9,5 C 13,3 C 60 % 1019,8 hPa 0,0 l/m 23,3 km/h (4 Bft) NO45 35 0 min 0 lux 0 W/m
22.04.2016 02:29 10,7 C 9,5 C 13,3 C 61 % 1019,8 hPa 0,0 l/m 18,2 km/h (3 Bft) NO45 45 0 min 0 lux 0 W/m
22.04.2016 02:34 10,5 C 9,5 C 13,2 C 61 % 1019,8 hPa 0,0 l/m 24,8 km/h (4 Bft) NO45 35 0 min 0 lux 0 W/m
22.04.2016 02:39 10,4 C 9,4 C 13,2 C 61 % 1019,8 hPa 0,0 l/m 23,6 km/h (4 Bft) NO45 45 0 min 0 lux 0 W/m
22.04.2016 02:45 10,4 C 9,3 C 13,2 C 61 % 1019,8 hPa 0,0 l/m 24,0 km/h (4 Bft) N-NO22.5 30 0 min 0 lux 0 W/m
22.04.2016 02:50 10,4 C 9,2 C 13,2 C 61 % 1019,8 hPa 0,0 l/m 28,6 km/h (5 Bft) NO22.5 40 0 min 0 lux 0 W/m
22.04.2016 02:54 10,3 C 9,2 C 13,1 C 62 % 1019,8 hPa 0,0 l/m 26,6 km/h (4 Bft) NO45 40 0 min 0 lux 0 W/m
22.04.2016 02:59 10,2 C 9,2 C 13,1 C 62 % 1019,8 hPa 0,0 l/m 32,0 km/h (5 Bft) NO22.5 45 0 min 0 lux 0 W/m
22.04.2016 03:05 10,1 C 9,0 C 13,2 C 62 % 1019,8 hPa 0,0 l/m 22,4 km/h (4 Bft) NO22.5 55 0 min 0 lux 0 W/m
22.04.2016 03:09 10,0 C 9,0 C 13,1 C 61 % 1019,8 hPa 0,0 l/m 27,5 km/h (5 Bft) NO45 40 0 min 0 lux 0 W/m
22.04.2016 03:14 10,0 C 8,9 C 13,0 C 61 % 1019,8 hPa 0,0 l/m 30,9 km/h (5 Bft) NO67.5 50 0 min 0 lux 0 W/m
22.04.2016 03:19 9,9 C 8,8 C 13,1 C 61 % 1019,8 hPa 0,0 l/m 21,5 km/h (4 Bft) NO45 45 0 min 0 lux 0 W/m
22.04.2016 03:24 9,9 C 8,5 C 13,1 C 61 % 1019,8 hPa 0,0 l/m 23,3 km/h (4 Bft) NO22.5 45 0 min 0 lux 0 W/m
22.04.2016 03:30 9,8 C 8,2 C 13,1 C 61 % 1019,8 hPa 0,0 l/m 17,8 km/h (3 Bft) NO45 40 0 min 0 lux 0 W/m
22.04.2016 03:35 9,8 C 8,0 C 13,0 C 61 % 1019,8 hPa 0,0 l/m 17,3 km/h (3 Bft) NO45 50 0 min 0 lux 0 W/m
22.04.2016 03:39 9,7 C 7,8 C 13,1 C 61 % 1019,8 hPa 0,0 l/m 15,9 km/h (3 Bft) O45 80 0 min 0 lux 0 W/m
22.04.2016 03:44 9,6 C 7,5 C 13,1 C 61 % 1019,8 hPa 0,0 l/m 11,5 km/h (2 Bft) NO22.5 45 0 min 0 lux 0 W/m
22.04.2016 03:49 9,6 C 7,3 C 13,1 C 61 % 1019,8 hPa 0,0 l/m 17,9 km/h (3 Bft) NO45 55 0 min 0 lux 0 W/m
22.04.2016 03:55 9,5 C 7,3 C 13,0 C 61 % 1019,8 hPa 0,0 l/m 17,1 km/h (3 Bft) NO45 35 0 min 0 lux 0 W/m
22.04.2016 04:00 9,5 C 7,1 C 13,0 C 61 % 1019,8 hPa 0,0 l/m 18,2 km/h (3 Bft) NO45 45 0 min 0 lux 0 W/m
22.04.2016 04:04 9,4 C 6,8 C 13,1 C 61 % 1019,8 hPa 0,0 l/m 10,9 km/h (2 Bft) NO22.5 50 0 min 0 lux 0 W/m
22.04.2016 04:09 9,2 C 6,4 C 13,1 C 62 % 1019,8 hPa 0,0 l/m 13,1 km/h (3 Bft) NO 45 0 min 0 lux 0 W/m
22.04.2016 04:15 9,1 C 6,2 C 13,1 C 62 % 1019,8 hPa 0,0 l/m 7,9 km/h (2 Bft) O-NO22.5 65 0 min 0 lux 0 W/m
22.04.2016 04:20 9,0 C 5,9 C 13,1 C 62 % 1019,8 hPa 0,0 l/m 14,3 km/h (3 Bft) NO22.5 40 0 min 0 lux 0 W/m
22.04.2016 04:24 8,9 C 5,9 C 13,0 C 62 % 1019,8 hPa 0,0 l/m 11,8 km/h (2 Bft) NO22.5 40 0 min 0 lux 0 W/m
22.04.2016 04:29 8,9 C 5,9 C 13,0 C 63 % 1019,8 hPa 0,0 l/m 12,0 km/h (2 Bft) NO22.5 45 0 min 0 lux 0 W/m
22.04.2016 04:34 8,9 C 5,8 C 12,9 C 63 % 1019,8 hPa 0,0 l/m 16,8 km/h (3 Bft) NO45 45 0 min 0 lux 0 W/m
22.04.2016 04:40 8,9 C 6,0 C 13,0 C 63 % 1019,8 hPa 0,0 l/m 10,2 km/h (2 Bft) N-NO22.5 25 0 min 0 lux 0 W/m
22.04.2016 04:45 8,9 C 6,5 C 12,9 C 63 % 1019,8 hPa 0,0 l/m 8,1 km/h (2 Bft) NO45 45 0 min 0 lux 0 W/m
22.04.2016 04:49 9,0 C 6,9 C 13,0 C 63 % 1019,8 hPa 0,0 l/m 7,9 km/h (2 Bft) NO 40 0 min 0 lux 0 W/m
22.04.2016 04:54 9,0 C 7,0 C 12,9 C 63 % 1019,8 hPa 0,0 l/m 11,4 km/h (2 Bft) N-NO22.5 30 0 min 0 lux 0 W/m
22.04.2016 04:59 9,0 C 7,2 C 12,9 C 63 % 1019,8 hPa 0,0 l/m 14,8 km/h (3 Bft) O-NO67.5 75 0 min 0 lux 0 W/m
22.04.2016 05:05 9,0 C 7,4 C 12,9 C 63 % 1019,8 hPa 0,0 l/m 9,6 km/h (2 Bft) NO 40 0 min 0 lux 0 W/m
22.04.2016 05:09 9,0 C 7,6 C 12,9 C 63 % 1019,8 hPa 0,0 l/m 13,8 km/h (3 Bft) N-NO22.5 25 0 min 0 lux 0 W/m
22.04.2016 05:14 9,0 C 7,5 C 12,8 C 63 % 1019,8 hPa 0,0 l/m 13,1 km/h (3 Bft) N-NO22.5 15 0 min 0 lux 0 W/m
22.04.2016 05:19 8,9 C 7,3 C 12,7 C 63 % 1019,8 hPa 0,0 l/m 12,0 km/h (2 Bft) N-NO67.5 25 0 min 0 lux 0 W/m
22.04.2016 05:25 8,9 C 7,1 C 12,7 C 63 % 1019,8 hPa 0,0 l/m 14,3 km/h (3 Bft) N-NO22.5 20 0 min 0 lux 0 W/m
22.04.2016 05:30 8,8 C 7,0 C 12,7 C 63 % 1019,8 hPa 0,0 l/m 13,5 km/h (3 Bft) N-NO22.5 15 0 min 0 lux 0 W/m
22.04.2016 05:34 8,7 C 6,9 C 12,7 C 63 % 1019,8 hPa 0,0 l/m 11,6 km/h (2 Bft) N-NO22.5 25 0 min 0 lux 0 W/m
22.04.2016 05:39 8,6 C 6,7 C 12,7 C 64 % 1019,8 hPa 0,0 l/m 11,9 km/h (2 Bft) N-NO22.5 25 0 min 0 lux 0 W/m
22.04.2016 05:44 8,6 C 6,7 C 12,7 C 64 % 1019,8 hPa 0,0 l/m 9,9 km/h (2 Bft) N22.5 5 0 min 0 lux 0 W/m
22.04.2016 05:50 8,5 C 6,7 C 12,6 C 64 % 1019,8 hPa 0,0 l/m 13,9 km/h (3 Bft) N-NO45 25 0 min 0 lux 0 W/m
22.04.2016 05:55 8,5 C 6,7 C 12,6 C 64 % 1019,8 hPa 0,0 l/m 16,8 km/h (3 Bft) N-NO22.5 15 0 min 0 lux 0 W/m
22.04.2016 05:59 8,5 C 6,7 C 12,6 C 64 % 1018,8 hPa 0,0 l/m 11,7 km/h (2 Bft) N-NO45 30 0 min 0 lux 0 W/m
22.04.2016 06:04 8,4 C 6,7 C 12,5 C 64 % 1018,8 hPa 0,0 l/m 16,4 km/h (3 Bft) N-NO22.5 25 0 min 42 lux 0 W/m
22.04.2016 06:10 8,4 C 6,6 C 12,5 C 65 % 1018,8 hPa 0,0 l/m 16,0 km/h (3 Bft) N-NO22.5 25 0 min 42 lux 0 W/m
22.04.2016 06:15 8,4 C 6,5 C 12,5 C 65 % 1018,8 hPa 0,0 l/m 14,8 km/h (3 Bft) N-NO22.5 20 0 min 159 lux 0 W/m
22.04.2016 06:19 8,2 C 6,4 C 12,4 C 65 % 1018,8 hPa 0,0 l/m 15,1 km/h (3 Bft) N-NO22.5 30 0 min 203 lux 0 W/m
22.04.2016 06:24 8,2 C 6,3 C 12,5 C 65 % 1018,8 hPa 0,0 l/m 20,8 km/h (4 Bft) NO45 35 0 min 203 lux 0 W/m
22.04.2016 06:29 8,1 C 6,3 C 12,3 C 65 % 1018,8 hPa 0,0 l/m 17,2 km/h (3 Bft) N-NO22.5 30 0 min 400 lux 3 W/m
22.04.2016 06:35 8,1 C 6,3 C 12,3 C 65 % 1018,8 hPa 0,0 l/m 22,0 km/h (4 Bft) NO22.5 40 0 min 567 lux 4 W/m
22.04.2016 06:40 8,1 C 6,3 C 12,2 C 65 % 1018,8 hPa 0,0 l/m 27,1 km/h (5 Bft) NO45 35 0 min 665 lux 5 W/m
22.04.2016 06:44 8,0 C 6,3 C 12,2 C 65 % 1018,8 hPa 0,0 l/m 21,2 km/h (4 Bft) N-NO22.5 30 0 min 825 lux 6 W/m
22.04.2016 06:49 8,0 C 6,2 C 12,2 C 65 % 1018,8 hPa 0,0 l/m 23,0 km/h (4 Bft) NO45 40 0 min 1,17 klux 8 W/m
22.04.2016 06:54 7,9 C 6,2 C 12,2 C 66 % 1018,8 hPa 0,0 l/m 17,3 km/h (3 Bft) NO45 40 0 min 1,17 klux 8 W/m
22.04.2016 07:00 7,9 C 6,3 C 12,1 C 66 % 1018,8 hPa 0,0 l/m 27,1 km/h (5 Bft) NO22.5 40 0 min 2,20 klux 15 W/m
22.04.2016 07:04 7,9 C 6,6 C 12,1 C 66 % 1018,8 hPa 0,0 l/m 22,5 km/h (4 Bft) NO22.5 45 0 min 2,20 klux 15 W/m
22.04.2016 07:09 7,8 C 6,7 C 11,8 C 67 % 1019,8 hPa 0,0 l/m 23,8 km/h (4 Bft) NO45 40 0 min 2,20 klux 15 W/m
22.04.2016 07:14 7,8 C 6,9 C 11,8 C 67 % 1019,8 hPa 0,0 l/m 20,3 km/h (4 Bft) N-NO45 25 0 min 2,20 klux 15 W/m
22.04.2016 07:20 7,8 C 7,0 C 11,7 C 67 % 1019,8 hPa 0,0 l/m 18,7 km/h (3 Bft) NO22.5 35 0 min 4,25 klux 29 W/m
22.04.2016 07:25 7,7 C 7,1 C 11,6 C 67 % 1019,8 hPa 0,0 l/m 18,0 km/h (3 Bft) N-NO22.5 15 0 min 4,25 klux 29 W/m
22.04.2016 07:29 7,7 C 7,2 C 11,6 C 68 % 1019,8 hPa 0,0 l/m 18,1 km/h (3 Bft) NO22.5 35 0 min 5,90 klux 40 W/m
22.04.2016 07:34 7,6 C 7,4 C 11,6 C 68 % 1019,8 hPa 0,0 l/m 21,6 km/h (4 Bft) N-NO45 30 0 min 5,90 klux 40 W/m
22.04.2016 07:39 7,7 C 7,6 C 11,5 C 68 % 1019,8 hPa 0,0 l/m 20,2 km/h (4 Bft) NO22.5 45 0 min 8,69 klux 59 W/m
22.04.2016 07:45 7,8 C 7,7 C 11,7 C 69 % 1019,8 hPa 0,0 l/m 20,6 km/h (4 Bft) NO22.5 40 0 min 9,4 klux 64 W/m
22.04.2016 07:50 7,9 C 8,0 C 11,6 C 68 % 1019,8 hPa 0,0 l/m 21,0 km/h (4 Bft) NO45 55 0 min 15,6 klux 107 W/m
22.04.2016 07:55 7,9 C 8,4 C 11,7 C 69 % 1019,8 hPa 0,0 l/m 16,7 km/h (3 Bft) NO45 35 0 min 10,8 klux 74 W/m
22.04.2016 08:00 8,0 C 8,6 C 11,6 C 68 % 1019,8 hPa 0,0 l/m 18,0 km/h (3 Bft) NO67.5 45 0 min 11,4 klux 78 W/m
22.04.2016 08:04 8,1 C 9,3 C 11,6 C 68 % 1019,8 hPa 0,0 l/m 16,1 km/h (3 Bft) O67.5 85 0 min 12,6 klux 86 W/m
22.04.2016 08:09 8,1 C 10,0 C 11,6 C 68 % 1019,8 hPa 0,0 l/m 20,8 km/h (4 Bft) O-NO45 70 0 min 12,6 klux 86 W/m
22.04.2016 08:15 8,2 C 10,0 C 11,6 C 68 % 1019,8 hPa 0,0 l/m 18,8 km/h (3 Bft) O45 90 0 min 17,9 klux 122 W/m
22.04.2016 08:20 8,2 C 10,7 C 11,5 C 67 % 1019,8 hPa 0,0 l/m 22,8 km/h (4 Bft) O67.5 80 0 min 17,9 klux 122 W/m
22.04.2016 08:24 8,2 C 10,8 C 11,5 C 67 % 1019,8 hPa 0,0 l/m 31,1 km/h (5 Bft) O45 90 0 min 14,3 klux 98 W/m
22.04.2016 08:29 8,2 C 11,4 C 11,6 C 66 % 1019,8 hPa 0,0 l/m 23,6 km/h (4 Bft) O67.5 95 0 min 20,0 klux 137 W/m
22.04.2016 08:34 8,5 C 11,9 C 11,6 C 66 % 1019,8 hPa 0,0 l/m 17,8 km/h (3 Bft) O22.5 85 5 min 27,7 klux 189 W/m
22.04.2016 08:40 8,8 C 12,6 C 11,7 C 66 % 1019,8 hPa 0,0 l/m 14,8 km/h (3 Bft) O-NO45 70 0 min 22,6 klux 155 W/m
22.04.2016 08:45 8,8 C 13,2 C 11,9 C 65 % 1019,8 hPa 0,0 l/m 9,2 km/h (2 Bft) O-NO22.5 60 0 min 22,6 klux 155 W/m
22.04.2016 08:50 9,2 C 14,1 C 12,0 C 65 % 1019,8 hPa 0,0 l/m 19,6 km/h (3 Bft) NO45 45 5 min 41,9 klux 287 W/m
22.04.2016 08:54 9,6 C 16,1 C 12,1 C 64 % 1019,8 hPa 0,0 l/m 20,3 km/h (4 Bft) NO67.5 50 4 min 36,1 klux 247 W/m
22.04.2016 08:59 9,7 C 16,6 C 12,2 C 62 % 1019,8 hPa 0,0 l/m 18,4 km/h (3 Bft) O-NO45 60 5 min 39,1 klux 267 W/m
22.04.2016 09:05 9,9 C 17,4 C 12,2 C 62 % 1019,8 hPa 0,0 l/m 20,5 km/h (4 Bft) O-NO67.5 75 6 min 42,1 klux 288 W/m
22.04.2016 09:09 10,2 C 19,2 C 12,3 C 61 % 1019,8 hPa 0,0 l/m 17,1 km/h (3 Bft) O-NO45 70 4 min 41,5 klux 284 W/m
22.04.2016 09:14 10,3 C 19,0 C 12,3 C 60 % 1019,8 hPa 0,0 l/m 23,8 km/h (4 Bft) O-NO45 70 5 min 41,5 klux 284 W/m
22.04.2016 09:19 10,4 C 18,9 C 12,3 C 59 % 1019,8 hPa 0,0 l/m 26,4 km/h (4 Bft) O-NO45 65 5 min 37,8 klux 259 W/m
22.04.2016 09:24 10,6 C 19,6 C 12,3 C 59 % 1019,8 hPa 0,0 l/m 14,6 km/h (3 Bft) O45 80 5 min 48,9 klux 334 W/m
22.04.2016 09:30 10,8 C 21,0 C 12,3 C 58 % 1019,8 hPa 0,0 l/m 20,9 km/h (4 Bft) O-NO45 75 6 min 49,1 klux 336 W/m
22.04.2016 09:35 10,9 C 22,2 C 12,4 C 58 % 1019,8 hPa 0,0 l/m 22,3 km/h (4 Bft) NO45 55 5 min 49,1 klux 336 W/m
22.04.2016 09:39 11,0 C 22,8 C 12,5 C 57 % 1019,8 hPa 0,0 l/m 22,4 km/h (4 Bft) O22.5 95 4 min 56,9 klux 389 W/m
22.04.2016 09:44 11,1 C 24,3 C 12,5 C 57 % 1019,8 hPa 0,0 l/m 23,2 km/h (4 Bft) O-NO45 70 5 min 57,7 klux 395 W/m
22.04.2016 09:49 11,3 C 25,2 C 12,5 C 57 % 1019,8 hPa 0,0 l/m 15,9 km/h (3 Bft) NO22.5 35 0 min 27,9 klux 191 W/m
22.04.2016 09:55 11,6 C 25,0 C 12,5 C 57 % 1019,8 hPa 0,0 l/m 22,6 km/h (4 Bft) NO45 35 6 min 53,6 klux 367 W/m
22.04.2016 10:00 11,5 C 24,6 C 12,5 C 56 % 1019,8 hPa 0,0 l/m 20,5 km/h (4 Bft) NO22.5 35 5 min 53,6 klux 367 W/m
22.04.2016 10:04 11,6 C 25,1 C 12,6 C 56 % 1019,8 hPa 0,0 l/m 20,0 km/h (4 Bft) NO45 35 4 min 61,4 klux 420 W/m
22.04.2016 10:09 11,8 C 24,7 C 12,5 C 56 % 1019,8 hPa 0,0 l/m 22,5 km/h (4 Bft) NO22.5 50 5 min 55,3 klux 378 W/m
22.04.2016 10:15 11,7 C 23,8 C 12,4 C 54 % 1019,8 hPa 0,0 l/m 27,3 km/h (5 Bft) NO22.5 40 6 min 55,8 klux 382 W/m
22.04.2016 10:20 11,6 C 22,9 C 12,4 C 55 % 1019,8 hPa 0,0 l/m 25,3 km/h (4 Bft) N-NO22.5 30 5 min 56,4 klux 386 W/m
22.04.2016 10:24 11,6 C 23,6 C 12,5 C 56 % 1019,8 hPa 0,0 l/m 23,4 km/h (4 Bft) NO22.5 35 4 min 56,4 klux 386 W/m
22.04.2016 10:29 11,8 C 23,6 C 12,5 C 55 % 1018,8 hPa 0,0 l/m 23,4 km/h (4 Bft) NO22.5 35 5 min 62,4 klux 427 W/m
22.04.2016 10:34 11,7 C 24,0 C 12,4 C 56 % 1018,8 hPa 0,0 l/m 29,3 km/h (5 Bft) NO45 40 5 min 53,5 klux 366 W/m
22.04.2016 10:40 11,7 C 23,1 C 12,4 C 56 % 1018,8 hPa 0,0 l/m 27,8 km/h (5 Bft) NO22.5 45 6 min 57,0 klux 390 W/m
22.04.2016 10:45 11,6 C 22,7 C 12,5 C 55 % 1018,8 hPa 0,0 l/m 25,7 km/h (4 Bft) NO45 35 5 min 60,0 klux 410 W/m
22.04.2016 10:49 11,7 C 21,9 C 12,5 C 55 % 1018,8 hPa 0,0 l/m 27,9 km/h (5 Bft) NO22.5 40 0 min 33,5 klux 229 W/m
22.04.2016 10:54 11,8 C 22,3 C 12,5 C 55 % 1019,8 hPa 0,0 l/m 25,6 km/h (4 Bft) NO45 35 5 min 55,7 klux 381 W/m
22.04.2016 10:59 12,0 C 24,2 C 12,6 C 55 % 1018,8 hPa 0,0 l/m 28,3 km/h (5 Bft) NO22.5 40 5 min 61,6 klux 421 W/m
22.04.2016 11:05 12,5 C 25,5 C 12,7 C 53 % 1018,8 hPa 0,0 l/m 26,5 km/h (4 Bft) NO67.5 35 6 min 63,1 klux 432 W/m
22.04.2016 11:09 12,6 C 26,6 C 12,8 C 53 % 1018,8 hPa 0,0 l/m 26,6 km/h (4 Bft) NO22.5 45 0 min 48,2 klux 330 W/m
22.04.2016 11:14 12,7 C 27,6 C 12,7 C 54 % 1018,8 hPa 0,0 l/m 21,3 km/h (4 Bft) NO22.5 45 5 min 65,3 klux 447 W/m
22.04.2016 11:19 13,3 C 29,0 C 13,0 C 54 % 1018,8 hPa 0,0 l/m 17,5 km/h (3 Bft) O-NO45 65 5 min 72,6 klux 497 W/m
22.04.2016 11:25 13,4 C 32,3 C 12,9 C 52 % 1018,8 hPa 0,0 l/m 17,3 km/h (3 Bft) O-NO45 60 6 min 75,0 klux 513 W/m
22.04.2016 11:30 13,3 C 32,3 C 12,9 C 52 % 1018,8 hPa 0,0 l/m 15,0 km/h (3 Bft) O-NO67.5 70 5 min 62,8 klux 430 W/m
22.04.2016 11:34 13,4 C 32,8 C 13,0 C 52 % 1018,8 hPa 0,0 l/m 19,6 km/h (3 Bft) O45 80 4 min 82,6 klux 565 W/m
22.04.2016 11:39 13,3 C 31,5 C 12,8 C 52 % 1018,8 hPa 0,0 l/m 20,7 km/h (4 Bft) NO45 45 5 min 66,2 klux 453 W/m
22.04.2016 11:44 13,3 C 30,6 C 12,9 C 52 % 1018,8 hPa 0,0 l/m 20,4 km/h (4 Bft) NO45 50 0 min 50,8 klux 347 W/m
22.04.2016 11:50 13,2 C 31,6 C 12,9 C 51 % 1018,8 hPa 0,0 l/m 17,4 km/h (3 Bft) O-NO45 70 6 min 72,1 klux 493 W/m
22.04.2016 11:55 13,6 C 31,4 C 12,9 C 52 % 1018,8 hPa 0,0 l/m 17,5 km/h (3 Bft) N-NO22.5 15 5 min 81,4 klux 557 W/m
22.04.2016 11:59 13,8 C 31,5 C 13,0 C 52 % 1018,8 hPa 0,0 l/m 17,2 km/h (3 Bft) N-NO45 25 4 min 77,7 klux 531 W/m
22.04.2016 12:04 14,0 C 31,8 C 13,1 C 52 % 1018,8 hPa 0,0 l/m 19,1 km/h (3 Bft) N-NO22.5 20 5 min 72,8 klux 498 W/m
22.04.2016 12:10 14,0 C 31,9 C 13,1 C 52 % 1018,8 hPa 0,0 l/m 18,3 km/h (3 Bft) N-NO45 25 6 min 81,6 klux 558 W/m
22.04.2016 12:15 14,0 C 32,8 C 13,2 C 52 % 1018,8 hPa 0,0 l/m 29,3 km/h (5 Bft) N-NO22.5 25 5 min 88,3 klux 604 W/m
22.04.2016 12:19 14,0 C 32,0 C 13,3 C 50 % 1018,8 hPa 0,0 l/m 22,0 km/h (4 Bft) NO45 35 4 min 72,0 klux 492 W/m
22.04.2016 12:24 14,3 C 31,6 C 13,2 C 50 % 1018,7 hPa 0,0 l/m 20,7 km/h (4 Bft) NO22.5 50 0 min 55,7 klux 381 W/m
22.04.2016 12:29 14,0 C 28,8 C 13,2 C 52 % 1018,8 hPa 0,0 l/m 22,8 km/h (4 Bft) NO22.5 45 5 min 81,3 klux 556 W/m
22.04.2016 12:35 14,2 C 30,2 C 13,2 C 49 % 1018,7 hPa 0,0 l/m 23,5 km/h (4 Bft) N-NO22.5 30 6 min 76,5 klux 523 W/m
22.04.2016 12:40 14,0 C 29,9 C 13,4 C 50 % 1017,7 hPa 0,0 l/m 30,3 km/h (5 Bft) N-NO22.5 25 5 min 85,3 klux 583 W/m
22.04.2016 12:44 13,9 C 29,9 C 13,2 C 49 % 1017,7 hPa 0,0 l/m 16,5 km/h (3 Bft) N-NO22.5 15 4 min 74,2 klux 508 W/m
22.04.2016 12:49 14,0 C 30,0 C 13,3 C 49 % 1017,7 hPa 0,0 l/m 23,5 km/h (4 Bft) NO45 35 5 min 61,6 klux 421 W/m
22.04.2016 12:54 14,3 C 29,5 C 13,4 C 48 % 1017,7 hPa 0,0 l/m 22,6 km/h (4 Bft) N-NO22.5 30 5 min 60,7 klux 415 W/m
22.04.2016 13:00 14,5 C 28,4 C 13,3 C 49 % 1017,7 hPa 0,0 l/m 17,1 km/h (3 Bft) N-NO22.5 15 0 min 58,4 klux 399 W/m
22.04.2016 13:04 14,7 C 27,1 C 13,5 C 49 % 1017,7 hPa 0,0 l/m 14,3 km/h (3 Bft) N-NO22.5 20 4 min 75,6 klux 517 W/m
22.04.2016 13:09 14,8 C 31,2 C 13,6 C 49 % 1017,7 hPa 0,0 l/m 14,5 km/h (3 Bft) N22.5 5 5 min 90,3 klux 618 W/m
22.04.2016 13:14 15,0 C 33,2 C 13,6 C 48 % 1017,7 hPa 0,0 l/m 23,3 km/h (4 Bft) NO22.5 45 5 min 75,8 klux 518 W/m
22.04.2016 13:20 15,0 C 33,4 C 13,7 C 47 % 1017,7 hPa 0,0 l/m 20,5 km/h (4 Bft) NO45 35 6 min 82,9 klux 567 W/m
22.04.2016 13:25 15,0 C 32,3 C 13,6 C 46 % 1017,7 hPa 0,0 l/m 22,9 km/h (4 Bft) NO22.5 45 5 min 80,1 klux 548 W/m
22.04.2016 13:29 14,8 C 33,3 C 13,6 C 48 % 1017,7 hPa 0,0 l/m 19,8 km/h (3 Bft) N-NO22.5 20 4 min 82,8 klux 566 W/m
22.04.2016 13:34 15,0 C 33,1 C 13,8 C 47 % 1017,7 hPa 0,0 l/m 18,7 km/h (3 Bft) N-NW45 345 5 min 80,6 klux 551 W/m
22.04.2016 13:39 15,0 C 32,5 C 13,8 C 46 % 1017,7 hPa 0,0 l/m 17,6 km/h (3 Bft) N67.5 10 5 min 76,1 klux 521 W/m
22.04.2016 13:45 15,4 C 35,2 C 14,1 C 47 % 1017,7 hPa 0,0 l/m 19,6 km/h (3 Bft) NO67.5 35 6 min 77,4 klux 529 W/m
22.04.2016 13:50 15,3 C 35,0 C 13,8 C 46 % 1017,7 hPa 0,0 l/m 20,3 km/h (4 Bft) NO67.5 55 5 min 74,8 klux 512 W/m
22.04.2016 13:54 15,6 C 35,1 C 13,8 C 47 % 1017,7 hPa 0,0 l/m 18,8 km/h (3 Bft) NO22.5 45 4 min 85,0 klux 581 W/m
22.04.2016 13:59 15,7 C 37,0 C 14,5 C 44 % 1017,7 hPa 0,0 l/m 18,8 km/h (3 Bft) N-NO22.5 30 5 min 75,2 klux 514 W/m
22.04.2016 14:05 15,5 C 35,2 C 14,5 C 45 % 1017,7 hPa 0,0 l/m 16,6 km/h (3 Bft) N67.5 360 6 min 60,6 klux 415 W/m
22.04.2016 14:10 15,5 C 31,7 C 13,9 C 44 % 1017,7 hPa 0,0 l/m 23,5 km/h (4 Bft) NO22.5 45 0 min 43,6 klux 298 W/m
22.04.2016 14:14 15,0 C 27,8 C 13,9 C 45 % 1017,7 hPa 0,0 l/m 19,0 km/h (3 Bft) NO22.5 35 4 min 75,6 klux 517 W/m
22.04.2016 14:19 15,6 C 32,2 C 14,1 C 46 % 1017,7 hPa 0,0 l/m 18,6 km/h (3 Bft) N-NO22.5 30 5 min 84,1 klux 575 W/m
22.04.2016 14:24 15,9 C 33,2 C 14,1 C 44 % 1017,7 hPa 0,0 l/m 15,8 km/h (3 Bft) NO22.5 35 0 min 59,2 klux 405 W/m
22.04.2016 14:30 15,8 C 32,6 C 14,0 C 45 % 1017,7 hPa 0,0 l/m 14,1 km/h (3 Bft) O-NO45 60 6 min 68,7 klux 470 W/m
22.04.2016 14:35 15,3 C 31,7 C 14,2 C 46 % 1017,7 hPa 0,0 l/m 24,5 km/h (4 Bft) N-NO22.5 30 5 min 61,0 klux 417 W/m
22.04.2016 14:39 15,2 C 31,0 C 14,2 C 50 % 1017,7 hPa 0,0 l/m 23,4 km/h (4 Bft) NW45 315 4 min 76,2 klux 521 W/m
22.04.2016 14:44 15,7 C 32,8 C 14,7 C 47 % 1016,7 hPa 0,0 l/m 17,8 km/h (3 Bft) NO45 35 5 min 72,9 klux 499 W/m
22.04.2016 14:49 15,8 C 33,3 C 14,6 C 48 % 1016,7 hPa 0,0 l/m 17,3 km/h (3 Bft) N-NO67.5 15 5 min 82,8 klux 566 W/m
22.04.2016 14:55 15,6 C 33,6 C 15,1 C 44 % 1016,7 hPa 0,0 l/m 13,9 km/h (3 Bft) N22.5 5 6 min 70,7 klux 484 W/m
22.04.2016 15:00 15,6 C 34,0 C 14,8 C 46 % 1016,7 hPa 0,0 l/m 15,3 km/h (3 Bft) N22.5 355 5 min 68,0 klux 465 W/m
22.04.2016 15:04 15,6 C 31,6 C 14,4 C 44 % 1016,7 hPa 0,0 l/m 21,1 km/h (4 Bft) N67.5 10 4 min 72,8 klux 498 W/m
22.04.2016 15:09 15,6 C 31,4 C 14,6 C 45 % 1016,7 hPa 0,0 l/m 18,3 km/h (3 Bft) N-NO45 30 5 min 71,2 klux 487 W/m
22.04.2016 15:15 16,0 C 32,4 C 14,7 C 47 % 1016,7 hPa 0,0 l/m 19,4 km/h (3 Bft) N22.5 360 6 min 74,9 klux 512 W/m
22.04.2016 15:20 16,0 C 31,6 C 15,1 C 47 % 1016,7 hPa 0,0 l/m 19,6 km/h (3 Bft) N67.5 10 5 min 62,0 klux 424 W/m
22.04.2016 15:24 16,0 C 30,0 C 15,0 C 48 % 1016,7 hPa 0,0 l/m 16,3 km/h (3 Bft) N22.5 355 4 min 72,2 klux 494 W/m
22.04.2016 15:29 15,7 C 30,3 C 14,8 C 49 % 1016,7 hPa 0,0 l/m 13,0 km/h (3 Bft) N-NW22.5 330 5 min 61,8 klux 423 W/m
22.04.2016 15:34 15,6 C 29,2 C 15,0 C 49 % 1016,7 hPa 0,0 l/m 17,8 km/h (3 Bft) N-NW45 345 5 min 76,4 klux 523 W/m
22.04.2016 15:40 15,9 C 29,3 C 15,0 C 47 % 1016,7 hPa 0,0 l/m 19,5 km/h (3 Bft) N-NO22.5 15 6 min 67,9 klux 464 W/m
22.04.2016 15:45 16,0 C 29,3 C 15,2 C 46 % 1016,7 hPa 0,0 l/m 19,3 km/h (3 Bft) N22.5 360 5 min 67,2 klux 460 W/m
22.04.2016 15:49 16,1 C 32,5 C 15,3 C 48 % 1016,7 hPa 0,0 l/m 10,8 km/h (2 Bft) N22.5 355 0 min 46,7 klux 319 W/m
22.04.2016 15:54 16,0 C 27,8 C 14,8 C 47 % 1016,7 hPa 0,0 l/m 21,1 km/h (4 Bft) N22.5 355 0 min 42,7 klux 292 W/m
22.04.2016 15:59 15,7 C 25,6 C 14,7 C 49 % 1016,7 hPa 0,0 l/m 15,0 km/h (3 Bft) N-NO45 20 0 min 43,4 klux 297 W/m
22.04.2016 16:04 15,7 C 25,5 C 15,0 C 48 % 1015,7 hPa 0,0 l/m 17,6 km/h (3 Bft) N67.5 10 5 min 52,0 klux 356 W/m
22.04.2016 16:09 15,6 C 25,4 C 14,8 C 48 % 1015,7 hPa 0,0 l/m 18,0 km/h (3 Bft) N-NO22.5 15 5 min 58,2 klux 398 W/m
22.04.2016 16:14 15,6 C 23,3 C 14,7 C 47 % 1015,7 hPa 0,0 l/m 20,1 km/h (4 Bft) N45 10 0 min 37,3 klux 255 W/m
22.04.2016 16:20 15,6 C 22,9 C 14,5 C 49 % 1015,7 hPa 0,0 l/m 17,1 km/h (3 Bft) N45 10 0 min 41,7 klux 285 W/m
22.04.2016 16:25 15,7 C 24,0 C 14,7 C 49 % 1015,7 hPa 0,0 l/m 15,3 km/h (3 Bft) N45 355 5 min 59,4 klux 406 W/m
22.04.2016 16:29 15,6 C 24,7 C 15,0 C 48 % 1015,7 hPa 0,0 l/m 14,6 km/h (3 Bft) N67.5 5 4 min 53,2 klux 364 W/m
22.04.2016 16:34 15,6 C 24,3 C 14,7 C 47 % 1015,7 hPa 0,0 l/m 17,3 km/h (3 Bft) N-NO45 15 0 min 36,5 klux 250 W/m
22.04.2016 16:39 15,2 C 22,7 C 14,6 C 48 % 1015,7 hPa 0,0 l/m 16,5 km/h (3 Bft) N45 350 0 min 31,5 klux 215 W/m
22.04.2016 16:45 15,0 C 21,6 C 14,7 C 48 % 1015,7 hPa 0,0 l/m 14,0 km/h (3 Bft) N-NW45 345 0 min 32,4 klux 222 W/m
22.04.2016 16:50 15,0 C 22,3 C 14,6 C 50 % 1015,7 hPa 0,0 l/m 11,6 km/h (2 Bft) NW45 315 0 min 36,3 klux 248 W/m
22.04.2016 16:54 15,1 C 22,7 C 15,0 C 50 % 1015,7 hPa 0,0 l/m 20,1 km/h (4 Bft) N22.5 350 0 min 36,3 klux 248 W/m
22.04.2016 16:59 15,1 C 23,0 C 14,8 C 51 % 1015,7 hPa 0,0 l/m 16,2 km/h (3 Bft) N22.5 5 0 min 41,3 klux 282 W/m
22.04.2016 17:05 15,4 C 24,6 C 14,7 C 49 % 1015,7 hPa 0,0 l/m 16,9 km/h (3 Bft) N22.5 5 0 min 41,3 klux 282 W/m
22.04.2016 17:09 15,5 C 24,2 C 15,0 C 48 % 1015,7 hPa 0,0 l/m 16,0 km/h (3 Bft) N45 5 4 min 44,7 klux 306 W/m
22.04.2016 17:14 15,2 C 22,9 C 15,0 C 49 % 1015,7 hPa 0,0 l/m 18,9 km/h (3 Bft) N-NW45 340 5 min 40,9 klux 280 W/m
22.04.2016 17:19 15,1 C 21,9 C 14,7 C 49 % 1015,7 hPa 0,0 l/m 21,1 km/h (4 Bft) N22.5 360 5 min 40,3 klux 276 W/m
22.04.2016 17:25 15,0 C 21,0 C 14,6 C 47 % 1015,7 hPa 0,0 l/m 27,6 km/h (5 Bft) N-NO45 15 0 min 23,0 klux 157 W/m
22.04.2016 17:29 15,0 C 18,8 C 14,6 C 49 % 1015,7 hPa 0,0 l/m 20,3 km/h (4 Bft) N45 350 0 min 19,6 klux 134 W/m
22.04.2016 17:34 14,7 C 18,2 C 14,7 C 49 % 1015,7 hPa 0,0 l/m 16,0 km/h (3 Bft) N22.5 360 0 min 19,6 klux 134 W/m
22.04.2016 17:39 14,6 C 17,8 C 14,6 C 50 % 1015,7 hPa 0,0 l/m 15,3 km/h (3 Bft) N-NW67.5 340 0 min 18,4 klux 126 W/m
22.04.2016 17:44 14,4 C 17,8 C 14,7 C 49 % 1015,7 hPa 0,0 l/m 19,8 km/h (3 Bft) N67.5 350 0 min 18,4 klux 126 W/m
22.04.2016 17:50 14,4 C 16,9 C 14,5 C 49 % 1014,7 hPa 0,0 l/m 18,1 km/h (3 Bft) N67.5 5 0 min 16,1 klux 110 W/m
22.04.2016 17:55 14,4 C 16,9 C 14,5 C 49 % 1014,7 hPa 0,0 l/m 20,2 km/h (4 Bft) N-NO67.5 15 0 min 15,0 klux 103 W/m
22.04.2016 17:59 14,4 C 16,7 C 14,3 C 49 % 1014,7 hPa 0,0 l/m 18,1 km/h (3 Bft) N45 360 0 min 15,0 klux 103 W/m
22.04.2016 18:05 14,1 C 16,3 C 14,5 C 50 % 1014,7 hPa 0,0 l/m 16,5 km/h (3 Bft) N67.5 350 0 min 12,4 klux 85 W/m
22.04.2016 18:10 13,9 C 15,9 C 14,4 C 50 % 1014,7 hPa 0,0 l/m 15,5 km/h (3 Bft) N-NW45 345 0 min 9,7 klux 66 W/m
22.04.2016 18:14 13,8 C 15,6 C 14,2 C 50 % 1014,7 hPa 0,0 l/m 15,3 km/h (3 Bft) N22.5 355 0 min 9,9 klux 68 W/m
22.04.2016 18:19 13,8 C 15,4 C 14,2 C 50 % 1014,7 hPa 0,0 l/m 10,1 km/h (2 Bft) N-NW22.5 340 0 min 10,2 klux 70 W/m
22.04.2016 18:24 13,7 C 15,3 C 14,3 C 50 % 1014,7 hPa 0,0 l/m 15,2 km/h (3 Bft) N-NW22.5 345 0 min 10,0 klux 68 W/m
22.04.2016 18:29 13,6 C 15,0 C 14,2 C 50 % 1014,7 hPa 0,0 l/m 12,2 km/h (2 Bft) N-NW45 340 0 min 8,85 klux 61 W/m
22.04.2016 18:35 13,6 C 14,9 C 14,2 C 47 % 1014,7 hPa 0,0 l/m 14,5 km/h (3 Bft) N-NW45 340 0 min 8,40 klux 57 W/m
22.04.2016 18:39 13,6 C 14,8 C 14,2 C 49 % 1014,7 hPa 0,0 l/m 6,1 km/h (2 Bft) W-NW22.5 295 0 min 8,40 klux 57 W/m
22.04.2016 18:44 13,6 C 14,6 C 14,1 C 48 % 1014,7 hPa 0,0 l/m 13,1 km/h (3 Bft) N22.5 350 0 min 7,39 klux 51 W/m
22.04.2016 18:49 13,5 C 14,4 C 14,1 C 47 % 1014,7 hPa 0,0 l/m 17,2 km/h (3 Bft) N22.5 360 0 min 7,18 klux 49 W/m
22.04.2016 18:54 13,6 C 14,2 C 14,1 C 47 % 1014,7 hPa 0,0 l/m 12,3 km/h (2 Bft) N22.5 10 0 min 8,39 klux 57 W/m
22.04.2016 19:00 13,6 C 14,4 C 14,1 C 47 % 1014,7 hPa 0,0 l/m 13,8 km/h (3 Bft) N45 350 0 min 9,2 klux 63 W/m
22.04.2016 19:04 13,5 C 14,4 C 14,0 C 46 % 1014,7 hPa 0,0 l/m 17,6 km/h (3 Bft) N22.5 10 0 min 7,57 klux 52 W/m
22.04.2016 19:09 13,5 C 14,1 C 14,0 C 46 % 1014,7 hPa 0,0 l/m 12,6 km/h (3 Bft) N22.5 5 0 min 6,67 klux 46 W/m
22.04.2016 19:15 13,4 C 13,8 C 13,9 C 47 % 1014,7 hPa 0,0 l/m 15,6 km/h (3 Bft) N67.5 10 0 min 5,78 klux 40 W/m
22.04.2016 19:20 13,4 C 13,5 C 14,0 C 49 % 1014,7 hPa 0,0 l/m 15,3 km/h (3 Bft) N22.5 5 0 min 5,31 klux 36 W/m
22.04.2016 19:24 13,3 C 13,5 C 13,9 C 49 % 1014,7 hPa 0,0 l/m 15,1 km/h (3 Bft) N-NO22.5 15 0 min 4,09 klux 28 W/m
22.04.2016 19:29 13,2 C 13,0 C 13,9 C 49 % 1014,7 hPa 0,0 l/m 16,7 km/h (3 Bft) N67.5 360 0 min 3,99 klux 27 W/m
22.04.2016 19:34 13,0 C 12,8 C 13,9 C 49 % 1014,7 hPa 0,0 l/m 19,2 km/h (3 Bft) N22.5 5 0 min 4,14 klux 28 W/m
22.04.2016 19:40 13,0 C 12,8 C 13,9 C 49 % 1014,7 hPa 0,0 l/m 13,9 km/h (3 Bft) N22.5 360 0 min 3,99 klux 27 W/m
22.04.2016 19:45 13,0 C 12,6 C 13,8 C 47 % 1014,7 hPa 0,0 l/m 20,1 km/h (4 Bft) N22.5 360 0 min 3,32 klux 23 W/m
22.04.2016 19:49 12,9 C 12,5 C 13,8 C 47 % 1014,8 hPa 0,0 l/m 12,0 km/h (2 Bft) N22.5 5 0 min 3,32 klux 23 W/m
22.04.2016 19:54 12,9 C 12,4 C 13,8 C 47 % 1014,8 hPa 0,0 l/m 16,7 km/h (3 Bft) N22.5 5 0 min 2,68 klux 18 W/m
22.04.2016 19:59 12,9 C 12,2 C 13,8 C 47 % 1014,8 hPa 0,0 l/m 17,1 km/h (3 Bft) N22.5 5 0 min 2,41 klux 16 W/m
22.04.2016 20:05 12,8 C 12,0 C 13,8 C 48 % 1014,8 hPa 0,0 l/m 13,0 km/h (3 Bft) N22.5 355 0 min 1,67 klux 11 W/m
22.04.2016 20:09 12,8 C 11,8 C 13,8 C 47 % 1014,8 hPa 0,0 l/m 11,8 km/h (2 Bft) N45 360 0 min 1,23 klux 8 W/m
22.04.2016 20:14 12,7 C 11,7 C 13,8 C 48 % 1014,8 hPa 0,0 l/m 10,6 km/h (2 Bft) N22.5 5 0 min 1,04 klux 7 W/m
22.04.2016 20:19 12,6 C 11,6 C 13,8 C 48 % 1014,8 hPa 0,0 l/m 13,3 km/h (3 Bft) N22.5 10 0 min 926 lux 6 W/m
22.04.2016 20:25 12,6 C 11,5 C 13,8 C 48 % 1014,8 hPa 0,0 l/m 16,0 km/h (3 Bft) N22.5 5 0 min 671 lux 5 W/m
22.04.2016 20:30 12,6 C 11,4 C 13,7 C 48 % 1014,8 hPa 0,0 l/m 10,1 km/h (2 Bft) N-NO22.5 15 0 min 470 lux 3 W/m
22.04.2016 20:34 12,5 C 11,3 C 13,7 C 50 % 1013,8 hPa 0,0 l/m 12,3 km/h (2 Bft) N-NO22.5 15 0 min 389 lux 3 W/m
22.04.2016 20:39 12,4 C 11,1 C 13,7 C 50 % 1014,8 hPa 0,0 l/m 9,4 km/h (2 Bft) N 360 0 min 262 lux 0 W/m
22.04.2016 20:44 12,4 C 11,1 C 13,8 C 50 % 1014,8 hPa 0,0 l/m 7,0 km/h (2 Bft) N 355 0 min 180 lux 0 W/m
22.04.2016 20:50 12,4 C 10,9 C 13,8 C 51 % 1013,8 hPa 0,0 l/m 11,1 km/h (2 Bft) N 350 0 min 127 lux 0 W/m
22.04.2016 20:55 12,2 C 10,8 C 13,7 C 51 % 1013,8 hPa 0,0 l/m 11,2 km/h (2 Bft) N 355 0 min 61 lux 0 W/m
22.04.2016 20:59 12,3 C 10,6 C 13,7 C 51 % 1013,8 hPa 0,0 l/m 7,9 km/h (2 Bft) N22.5 5 0 min 61 lux 0 W/m
22.04.2016 21:04 12,2 C 10,5 C 13,6 C 51 % 1013,8 hPa 0,0 l/m 15,0 km/h (3 Bft) N22.5 5 0 min 61 lux 0 W/m
22.04.2016 21:10 12,1 C 10,4 C 13,5 C 51 % 1013,8 hPa 0,0 l/m 8,1 km/h (2 Bft) N22.5 360 0 min 8 lux 0 W/m
22.04.2016 21:15 12,0 C 10,3 C 13,5 C 51 % 1014,8 hPa 0,0 l/m 9,5 km/h (2 Bft) N22.5 10 0 min 8 lux 0 W/m
22.04.2016 21:19 12,0 C 10,3 C 13,6 C 52 % 1014,8 hPa 0,0 l/m 8,8 km/h (2 Bft) N22.5 360 0 min 8 lux 0 W/m
22.04.2016 21:24 11,9 C 10,2 C 13,5 C 52 % 1013,8 hPa 0,0 l/m 16,3 km/h (3 Bft) N22.5 5 0 min 8 lux 0 W/m
22.04.2016 21:29 11,8 C 10,3 C 13,5 C 52 % 1014,8 hPa 0,0 l/m 12,5 km/h (2 Bft) N22.5 5 0 min 0 lux 0 W/m
22.04.2016 21:35 11,8 C 10,3 C 13,4 C 52 % 1013,8 hPa 0,0 l/m 10,5 km/h (2 Bft) N22.5 10 0 min 0 lux 0 W/m
22.04.2016 21:40 11,8 C 10,3 C 13,4 C 52 % 1013,8 hPa 0,0 l/m 12,3 km/h (2 Bft) N-NO22.5 15 0 min 0 lux 0 W/m
22.04.2016 21:44 11,8 C 10,3 C 13,5 C 51 % 1013,8 hPa 0,0 l/m 10,3 km/h (2 Bft) N22.5 10 0 min 0 lux 0 W/m
22.04.2016 21:49 11,8 C 10,6 C 13,4 C 48 % 1013,8 hPa 0,0 l/m 18,5 km/h (3 Bft) N-NO45 20 0 min 0 lux 0 W/m
22.04.2016 21:54 11,9 C 10,6 C 13,4 C 46 % 1013,8 hPa 0,0 l/m 15,5 km/h (3 Bft) N-NO22.5 20 0 min 0 lux 0 W/m
22.04.2016 22:00 11,9 C 10,6 C 13,4 C 46 % 1013,8 hPa 0,0 l/m 19,1 km/h (3 Bft) N-NO22.5 25 0 min 0 lux 0 W/m
22.04.2016 22:04 11,9 C 10,6 C 13,4 C 46 % 1013,8 hPa 0,0 l/m 18,8 km/h (3 Bft) N-NO22.5 30 0 min 0 lux 0 W/m
22.04.2016 22:09 11,9 C 10,6 C 13,3 C 46 % 1013,8 hPa 0,0 l/m 21,6 km/h (4 Bft) N-NO45 30 0 min 0 lux 0 W/m
22.04.2016 22:15 11,8 C 10,5 C 13,3 C 47 % 1013,8 hPa 0,0 l/m 21,4 km/h (4 Bft) NO45 35 0 min 0 lux 0 W/m
22.04.2016 22:20 11,7 C 10,4 C 13,3 C 48 % 1013,8 hPa 0,0 l/m 18,8 km/h (3 Bft) N-NO45 25 0 min 0 lux 0 W/m
22.04.2016 22:24 11,6 C 10,4 C 13,3 C 48 % 1013,8 hPa 0,0 l/m 25,6 km/h (4 Bft) NO22.5 35 0 min 0 lux 0 W/m
22.04.2016 22:29 11,5 C 10,4 C 13,2 C 49 % 1013,8 hPa 0,0 l/m 24,1 km/h (4 Bft) NO45 40 0 min 0 lux 0 W/m
22.04.2016 22:34 11,4 C 10,3 C 13,2 C 50 % 1013,8 hPa 0,0 l/m 24,5 km/h (4 Bft) N-NO22.5 25 0 min 0 lux 0 W/m
22.04.2016 22:40 11,3 C 10,2 C 13,2 C 50 % 1013,8 hPa 0,0 l/m 26,3 km/h (4 Bft) N-NO22.5 30 0 min 0 lux 0 W/m
22.04.2016 22:45 11,2 C 10,1 C 13,2 C 51 % 1013,8 hPa 0,0 l/m 21,8 km/h (4 Bft) N-NO45 25 0 min 0 lux 0 W/m
22.04.2016 22:49 11,1 C 10,0 C 13,2 C 52 % 1013,8 hPa 0,0 l/m 24,2 km/h (4 Bft) N-NO22.5 25 0 min 0 lux 0 W/m
22.04.2016 22:54 11,1 C 9,9 C 13,2 C 52 % 1013,8 hPa 0,0 l/m 14,9 km/h (3 Bft) NO45 35 0 min 0 lux 0 W/m
22.04.2016 22:59 11,0 C 9,8 C 13,2 C 53 % 1013,8 hPa 0,0 l/m 19,0 km/h (3 Bft) NO22.5 35 0 min 0 lux 0 W/m
22.04.2016 23:05 10,9 C 9,8 C 13,1 C 53 % 1013,8 hPa 0,0 l/m 18,1 km/h (3 Bft) N-NO22.5 20 0 min 0 lux 0 W/m
22.04.2016 23:09 10,9 C 9,7 C 13,1 C 53 % 1013,8 hPa 0,0 l/m 22,2 km/h (4 Bft) N-NO22.5 25 0 min 0 lux 0 W/m
22.04.2016 23:14 10,8 C 9,7 C 13,1 C 53 % 1013,8 hPa 0,0 l/m 17,1 km/h (3 Bft) N-NO67.5 30 0 min 0 lux 0 W/m
22.04.2016 23:19 10,7 C 9,6 C 13,1 C 54 % 1013,8 hPa 0,0 l/m 20,3 km/h (4 Bft) N-NO22.5 15 0 min 0 lux 0 W/m
22.04.2016 23:25 10,6 C 9,6 C 13,1 C 55 % 1013,8 hPa 0,0 l/m 19,6 km/h (3 Bft) N-NO22.5 20 0 min 0 lux 0 W/m
22.04.2016 23:30 10,6 C 9,5 C 13,0 C 55 % 1013,8 hPa 0,0 l/m 17,0 km/h (3 Bft) N-NO22.5 20 0 min 0 lux 0 W/m
22.04.2016 23:34 10,4 C 9,5 C 13,0 C 55 % 1013,8 hPa 0,0 l/m 21,2 km/h (4 Bft) N-NO45 30 0 min 0 lux 0 W/m
22.04.2016 23:39 10,4 C 9,4 C 13,1 C 56 % 1013,8 hPa 0,0 l/m 16,6 km/h (3 Bft) N-NO22.5 25 0 min 0 lux 0 W/m
22.04.2016 23:45 10,4 C 9,3 C 13,0 C 56 % 1013,8 hPa 0,0 l/m 21,0 km/h (4 Bft) NO45 35 0 min 0 lux 0 W/m
22.04.2016 23:50 10,3 C 9,2 C 13,0 C 56 % 1013,8 hPa 0,0 l/m 20,6 km/h (4 Bft) N-NO22.5 25 0 min 0 lux 0 W/m
22.04.2016 23:54 10,3 C 9,2 C 12,9 C 56 % 1013,8 hPa 0,0 l/m 28,6 km/h (5 Bft) NO22.5 35 0 min 0 lux 0 W/m
22.04.2016 23:59 10,1 C 9,1 C 12,9 C 56 % 1013,8 hPa 0,0 l/m 19,7 km/h (3 Bft) NO45 35 0 min 0 lux 0 W/m
_ Min-Zeit 07:34 04:34 07:39 13:59 20:34 - 18:39 - - - - -
Minimum _ 7,6 C 5,8 C 11,5 C 44 % 1013,8 hPa - 6,1 km/h (2 Bft) - - - - -
_ Max-Zeit 15:49 13:59 15:49 07:45 07:34 00:00 02:59 - - 09:05 13:09 13:09
Maximum _ 16,1 C 37,0 C 15,3 C 69 % 1019,8 hPa 0,0 l/m 32,0 km/h
NO (5 Bft)
- - 6 min 90,3 klux 618 W/m
Durchschnitt _ 11,9 C 16,4 C 13,3 C 54 % 1017,6 hPa #0,0 l/m 18,5 km/h (3 Bft) NO - #6:59 h 23,6 klux 274 W/m